Terminal Aerodrome Forecast
Issued by NWS Milwaukee/Sullivan, WI

Home | Current Version | Previous Version | Text Only | Print | Product List | Glossary On
Versions: 1 2 3 4 5 6 7 8 9 10 11 12 13 14 15 16 17 18 19 20 21 22 23 24 25 26 27 28 29 30 31 32 33 34 35 36 37 38 39 40 41 42 43 44 45 46 47 48 49 50
000
FTUS43 KMKX 022337
TAFMKE
TAF
KMKE 022337Z 0300/0406 26006KT P6SM FEW050
     FM030300 24003KT P6SM SKC
     FM031800 15009KT P6SM SKC
     FM040200 18008KT P6SM SCT250
     FM040500 19010KT P6SM BKN080=

USA.gov is the U.S. government's official web portal to all federal, state and local government web resources and services.